Welcome to the New NWS' Forecast!
Most changes are behind the scenes, but click here for differences you might notice.
Latest weather observations around

Palm Springs Regional Airport (KPSP)

Using English Units (Switch to International System of Units)
Date/ Time (PDT) Wind (mph) Vis. (mi) Weather Sky Cond. Temp (°F) Rel. Humidity Wind Chill (°F) Heat Index (°F) Pressure Precip. (in)
Air Dwpt 6 hour Altimeter (inHg) Sea level (inHg) 1 hr 3 hr 6 hr
Max Min
Sep 19 20:53 NW 5 10 Clear CLR 91 38     16%   87 29.68 29.67      
Sep 19 19:53 WNW 11 10 Clear CLR 93 34     13%   88 29.65 29.64      
Sep 19 19:23 WNW 11 10 Clear CLR 94 30     10%   89 29.64        
Sep 19 18:53 WNW 11 10 Clear CLR 96 31     10%   90 29.63 29.61      
Sep 19 17:53 ESE 5 10 Clear CLR 99 33     10%   93 29.61 29.6      
Sep 19 16:53 ENE 6 10 Clear CLR 101 33     9%   95 29.61 29.6      
Sep 19 15:53 SE 7 10 Clear CLR 100 30     9%   94 29.63 29.62      
Sep 19 14:53 ENE 8 10 Clear CLR 100 25     7%   93 29.65 29.64      
Sep 19 13:55 ENE 8 10 Clear CLR 100 28     8%   93 29.68        
Sep 19 13:53   10 Clear CLR 100 26     7%   93 29.68 29.66      
Sep 19 12:53 ESE 7 10 Clear CLR 99 22     6%   92 29.71 29.7      
Sep 19 11:53 ESE 9 10 Clear CLR 96 24     8%   90 29.73 29.71      
Sep 19 10:53 5 10 Clear CLR 94 23     8%   88 29.74 29.72      
Sep 19 09:53 3 10 Clear CLR 90 29     11%   85 29.75 29.73      
Sep 19 08:53 Calm 10 Clear CLR 83 40     22%   81 29.74 29.73      
Sep 19 07:53 Calm 10 Clear CLR 78 38     24%   77 29.73 29.72      
Sep 19 06:53 Calm 10 Clear CLR 72        %     29.71 29.7      
Sep 19 05:53 Calm 10 Clear CLR 73 41     31%   72 29.7 29.69      
Sep 19 04:53 Calm 10 Clear CLR 75 41     29%   74 29.69 29.68      
Sep 19 03:53 Calm 10 Clear CLR 75 41     29%   74 29.69 29.67      
Sep 19 02:53 Calm 10 Clear CLR 72 46     40%   71 29.69 29.68      
Sep 19 01:53 Calm 10 Clear CLR 78 39     25%   77 29.7 29.69      
Sep 19 00:53 E 3 10 Clear CLR 81 38     21%   80 29.71 29.69      
Sep 18 23:53 Calm 10 Clear CLR 83 38     20%   81 29.71 29.7      
Sep 18 22:53 WNW 6 10 Clear CLR 88 35     15%   84 29.71 29.69      
Sep 18 21:53 NW 15 10 Clear CLR 90 36     15%   86 29.71 29.69      
Sep 18 20:53 NW 14 10 Clear CLR 92 37     15%   88 29.7 29.68      
Sep 18 19:53 NW 8 10 Clear CLR 95 34     12%   90 29.69 29.67      
Sep 18 18:53 E 7 10 Clear CLR 98 28     8%   92 29.68 29.67      
Sep 18 17:53 ESE 8 10 Clear CLR 101 29     8%   94 29.67 29.66      
Sep 18 16:53 6 10 Clear CLR 103 27     7%   96 29.69 29.67      
Sep 18 15:53 E 8 10 Clear CLR 103 18     5%   95 29.7 29.69      
Sep 18 14:53 7 10 Clear CLR 103 15     4%   95 29.72 29.7      
Sep 18 13:53 7 10 Clear CLR 102 16     4%   94 29.75 29.73      
Sep 18 12:53 7 10 Clear CLR 102 16     4%   94 29.77 29.75      
Sep 18 11:53 WNW 6 10 Clear CLR 99 23     7%   92 29.79 29.77      
Sep 18 10:53 Calm 10 Clear CLR 96 29     9%   90 29.8 29.79      
Sep 18 08:53 SSE 3 10 Clear CLR 85 38     19%   82 29.81 29.79      
Sep 18 07:53 SSW 3 10 Clear CLR 80 43     27%   79 29.8 29.79      
Sep 18 06:53 Calm 10 Clear CLR 75        %     29.78 29.77      
Sep 18 05:53 Calm 10 Clear CLR 74        %     29.77 29.76      
Notice The following observation data may not be complete
Sep 18 04:53 Calm 10 Clear CLR   45      %     29.76 29.75      
Sep 18 03:53 WSW 3 10 Clear CLR 77 46     33%   76 29.75 29.74      
Sep 18 02:53 Calm 10 Clear CLR 77 46     33%   76 29.76 29.74      
Sep 18 01:53 SSE 6 10 Clear CLR 80 44     28%   79 29.76 29.75      
Sep 18 00:53 ESE 3 10 Clear CLR 84 42     23%   81 29.77 29.75      
Sep 17 23:53 WNW 10 10 Clear CLR 89 37     16%   85 29.76 29.75      
Sep 17 22:53 NW 14 10 Clear CLR 91 39     16%   87 29.76 29.75      
Sep 17 21:53 NW 15 10 Clear CLR 92 38     15%   88 29.75 29.73      
Sep 17 20:53 NW 15 10 Clear CLR 94 38     14%   90 29.73 29.71      
Sep 17 19:53 NW 17 10 Clear CLR 96 39     14%   92 29.71 29.7      
Sep 17 18:53 NW 17 10 Clear CLR 99 39     13%   94 29.7 29.69      
Sep 17 17:53 NW 18 10 Clear CLR 103 38     11%   97 29.7 29.68      
Sep 17 16:53 NNW 17 10 Clear CLR 106 30     7%   99 29.71 29.69      
Sep 17 15:53 NNW 13 10 Clear CLR 107 28     6%   99 29.71 29.7      
Sep 17 14:53 NNW 15 10 Clear CLR 106 27     6%   98 29.73 29.71      
Sep 17 13:53 NW 11 10 Clear CLR 106 29     7%   99 29.75 29.74      
Sep 17 12:53 Calm 10 Clear CLR 105 31     8%   98 29.79 29.77      
Sep 17 11:53 3 10 Clear CLR 102 32     9%   96 29.81 29.79      
Sep 17 10:53 5 10 Clear CLR 99 38     12%   94 29.82 29.8      
Sep 17 09:53 6 10 Clear CLR 94 40     15%   90 29.82 29.81      
Sep 17 08:53 Calm 10 Clear CLR 87 46     24%   84 29.82 29.8      
Sep 17 07:53 Calm 10 Clear CLR 82 49     32%   81 29.82 29.8      
Sep 17 06:53 Calm 10 Clear CLR 74        %     29.81 29.8      
Sep 17 05:53 Calm 10 Clear CLR 76 50     40%   75 29.8 29.78      
Sep 17 04:53 Calm 10 Clear CLR 77 51     40%   76 29.79 29.77      
Sep 17 03:53 Calm 10 Clear CLR 79 50     36%   78 29.79 29.77      
Sep 17 02:53 Calm 10 Clear CLR 78 50     37%   77 29.79 29.78      
Sep 17 01:53 Calm 10 Clear CLR 82 48     31%   81 29.79 29.78      
Sep 17 00:53 Calm 10 Clear CLR 82 48     31%   81 29.79 29.77      
Sep 16 23:53 SE 3 10 Clear CLR 85 45     25%   82 29.79 29.78      
Sep 16 22:53 3 10 Clear CLR 89 43     20%   85 29.79 29.77      
Sep 16 21:53 WNW 7 10 Clear CLR 92 41     17%   88 29.78 29.76      
Sep 16 20:53 NW 15 10 Clear CLR 94 41     16%   90 29.77 29.76      
Sep 16 19:53 NW 17 10 Clear CLR 97 40     14%   92 29.75 29.74      
Sep 16 18:53 Calm 10 Clear CLR 100 37     11%   95 29.75 29.73      
Sep 16 17:53 7 10 Clear CLR 103 36     10%   97 29.75 29.73      
Sep 16 16:53 NW 14 10 Clear CLR 106 36     9%   100 29.74 29.73      
Sep 16 15:53 E 8 10 Clear CLR 105 50     16%   102 29.75 29.73      
Sep 16 14:53 6 10 Clear CLR 102 52     19%   100 29.77 29.75      
Sep 16 13:53 ESE 7 10 Clear CLR 102 53     20%   100 29.8 29.78      
Sep 16 12:53 3 10 Clear CLR 97 62     32%   98 29.83 29.81      
Sep 16 11:53 NNE 3 10 Clear CLR 96 64     35%   98 29.85 29.84      
Sep 16 10:53   10 Clear CLR 93 66     41%   96 29.87 29.85      
Sep 16 09:53 Calm 10 Clear CLR 91 55     30%   89 29.87 29.86      
Sep 16 08:53 Calm 10 Clear CLR 90 39     17%   86 29.86 29.85      
Sep 16 07:53 NW 5 10 Clear CLR 85 40     20%   82 29.85 29.83      
Sep 16 06:53 NNW 5 10 Clear CLR 81 39     22%   80 29.83 29.82      
Sep 16 05:53 Calm 10 Clear CLR 79 43     28%   78 29.81 29.8      
Sep 16 04:53 NNW 6 10 Clear CLR 82 41     23%   80 29.79 29.78      
Sep 16 03:53 S 5 10 Clear CLR 83 40     22%   81 29.77 29.76      
Sep 16 02:53 Calm 10 Clear CLR 83 42     24%   81 29.75 29.74      
Sep 16 01:53 SE 6 10 Clear CLR 83 42     24%   81 29.75 29.73      
Sep 16 00:53 Calm 10 Clear CLR 86 42     21%   83 29.75 29.73      
Sep 15 23:53 Calm 10 Clear CLR 87 41     20%   84 29.75 29.73      
Sep 15 22:53 Calm 10 Clear CLR 91 38     16%   87 29.74 29.72      
Sep 15 21:53 NW 8 10 Clear CLR 94 37     14%   89 29.74 29.72      
Sep 15 20:53 NW 13 10 Clear CLR 96 36     12%   91 29.73 29.71      
Sep 15 19:53 N 16 10 Clear CLR 98 36     12%   93 29.71 29.69      
Sep 15 18:53 NNW 17 10 Clear CLR 100 36     11%   95 29.69 29.67      
Sep 15 17:53 NNW 18 10 Clear CLR 104 33     9%   97 29.68 29.66      
Sep 15 16:53 NW 15 10 Clear CLR 106 32     8%   99 29.68 29.67      
Sep 15 15:53 NW 15 10 Clear CLR 107 31     7%   100 29.69 29.67      
Sep 15 14:53 NNW 13 10 Clear CLR 108 35     8%   101 29.7 29.69      
Sep 15 13:53 6 10 Clear CLR 106 34     8%   99 29.72 29.7      
Sep 15 12:53   10 Clear CLR 105 33     8%   98 29.74 29.73      
Sep 15 11:53 Calm 10 Clear CLR 103 35     10%   97 29.76 29.74      
Sep 15 10:53 5 10 Clear CLR 100 37     11%   95 29.77 29.75      
May 15 02:53 Calm 10 Clear CLR 69 48     47%     29.84 29.83      
May 14 20:53 NW 21 10 Clear and Windy CLR 78 49     36%   77 29.82 29.81      
May 14 19:53 NW 21 10 Clear and Windy CLR 81 49     33%   80 29.79 29.78      
May 13 21:53 NW 14 10 Clear CLR 74 45     36%   73 29.85 29.84      
May 13 09:53 NW 16 10 Clear   75 44     33%   74 29.93 29.92      
May 12 18:53 NW 22 10 Clear and Windy CLR 75 43     32%   74 29.77 29.76      
May 12 17:53 NW 22 10 Clear and Windy CLR 78 44     30%   77 29.77 29.76      
May 12 16:53 NW 22 10 Clear and Windy CLR 79 44     29%   78 29.76 29.76      
May 12 08:53 WNW 14 10 Clear CLR 70 44     39%     29.85 29.84      
May 12 06:53 WNW 10 10 Clear CLR 65 44     47%     29.81 29.8      
May 12 00:53 SE 6 10 Clear CLR 66 45     47%     29.7 29.69      
May 11 21:53 NW 15 10 Clear CLR 73 41     31%   72 29.68 29.67      
May 11 13:53 NW 22 10 Clear and Windy CLR 83 47     28%   81 29.65 29.64      
Jun 12 04:53 S 8 10 Clear CLR 64 44     48%     29.86 29.85      
Jun 11 21:53   10 Clear CLR 73 43     34%   72 29.8 29.79      
Jun 11 20:53 NNW 15 10 Clear CLR 75 44     33%   74 29.76 29.75      
Jun 11 19:53 NNW 17 10 Clear CLR 79 41     26%   78 29.74 29.73      
Jun 11 18:53 S 8 10 Clear CLR 81 38     21%   80 29.72 29.71      
Jun 10 23:53 NW 18 10 Clear CLR 75 46     36%   74 29.66 29.65      
Jun 10 19:53 NW 17 10 Clear   85 48     28%   83 29.63 29.61      
Jun 08 23:53 WNW 7 10 Clear CLR 83 41     23%   81 29.78 29.76      
Jun 08 17:53 NW 21 10 Clear and Windy CLR 97 40     14%   92 29.74 29.72      
Jun 07 07:53 Calm 10 Clear CLR 78 58     50%   78 29.86 29.85      
Jun 06 12:53 ESE 8 10 Clear CLR 100 45     15%   96 29.82 29.8      
Jun 06 07:53 W 5 10 Clear CLR 83 55     38%   82 29.85 29.84